QPF
0.03 0.03 0.03 0.04 0.03 0.03 0.04 0.05 0.04 0.04 0.06 0.05 0.05 0.06 0.07 0.04 0.04 0.05 0.04 0.06 0.07 0.09 0.12 0.14 0.17 0.19 0.16 0.13 0.13 0.17 0.18 0.13 0.09 0.07 0.06 0.05 0.05 0.07 0.07 0.05 0.04 0.04 0.04
0.03 0.03 0.03 0.02 0.02 0.03 0.04 0.03 0.04 0.04 0.06 0.06 0.06 0.07 0.07 0.05 0.04 0.04 0.04 0.06 0.09 0.09 0.11 0.14 0.15 0.14 0.15 0.14 0.13 0.12 0.13 0.12 0.10 0.08 0.07 0.06 0.06 0.06 0.08 0.07 0.05 0.04 0.04
0.03 0.03 0.04 0.03 0.02 0.03 0.03 0.03 0.04 0.03 0.05 0.06 0.05 0.05 0.05 0.07 0.05 0.04 0.04 0.05 0.06 0.08 0.11 0.16 0.18 0.20 0.22 0.25 0.17 0.12 0.10 0.08 0.07 0.07 0.08 0.07 0.07 0.06 0.07 0.08 0.06 0.05 0.05
0.04 0.04 0.03 0.03 0.02 0.03 0.02 0.03 0.04 0.04 0.05 0.05 0.03 0.03 0.04 0.05 0.05 0.04 0.03 0.04 0.07 0.08 0.11 0.15 0.17 0.21 0.22 0.26 0.17 0.14 0.11 0.08 0.05 0.06 0.08 0.09 0.09 0.06 0.06 0.07 0.06 0.05 0.04
0.05 0.05 0.04 0.03 0.02 0.01 0.01 0.02 0.04 0.04 0.05 0.05 0.04 0.03 0.03 0.04 0.05 0.07 0.07 0.06 0.07 0.07 0.07 0.07 0.11 0.17 0.20 0.16 0.15 0.17 0.17 0.13 0.09 0.07 0.07 0.08 0.07 0.06 0.05 0.06 0.06 0.06 0.05
0.05 0.06 0.04 0.03 0.02 0.01 0.01 0.02 0.04 0.04 0.03 0.04 0.04 0.03 0.03 0.04 0.03 0.04 0.05 0.06 0.07 0.05 0.06 0.05 0.04 0.05 0.08 0.10 0.11 0.14 0.15 0.13 0.11 0.10 0.09 0.11 0.08 0.06 0.06 0.06 0.07 0.06 0.05
0.06 0.05 0.05 0.04 0.03 0.03 0.02 0.02 0.03 0.03 0.02 0.02 0.03 0.04 0.03 0.03 0.02 0.03 0.04 0.06 0.05 0.05 0.05 0.04 0.02 0.02 0.03 0.06 0.08 0.10 0.12 0.12 0.11 0.10 0.11 0.09 0.08 0.06 0.06 0.05 0.06 0.07 0.07
0.05 0.07 0.07 0.06 0.06 0.06 0.04 0.03 0.03 0.03 0.03 0.02 0.02 0.03 0.04 0.04 0.04 0.03 0.04 0.05 0.04 0.04 0.05 0.03 0.02 0.02 0.02 0.03 0.04 0.07 0.11 0.12 0.12 0.11 0.11 0.09 0.07 0.08 0.09 0.08 0.07 0.08 0.08
0.05 0.05 0.05 0.06 0.07 0.07 0.06 0.05 0.05 0.04 0.03 0.03 0.02 0.03 0.03 0.03 0.03 0.03 0.03 0.03 0.03 0.03 0.05 0.06 0.06 0.05 0.04 0.04 0.05 0.06 0.08 0.09 0.10 0.13 0.13 0.12 0.11 0.14 0.13 0.10 0.09 0.09 0.08
0.05 0.04 0.04 0.04 0.05 0.06 0.06 0.06 0.07 0.05 0.03 0.03 0.04 0.04 0.03 0.03 0.02 0.02 0.02 0.03 0.03 0.03 0.04 0.06 0.07 0.06 0.05 0.05 0.05 0.06 0.07 0.05 0.07 0.09 0.12 0.14 0.16 0.18 0.20 0.16 0.12 0.10 0.09
0.08 0.06 0.03 0.03 0.05 0.06 0.05 0.05 0.05 0.05 0.04 0.04 0.05 0.05 0.04 0.03 0.02 0.02 0.02 0.03 0.03 0.04 0.04 0.05 0.07 0.06 0.06 0.05 0.05 0.06 0.07 0.06 0.06 0.07 0.11 0.18 0.22 0.24 0.22 0.18 0.16 0.13 0.09
0.07 0.05 0.03 0.03 0.06 0.05 0.05 0.04 0.05 0.06 0.05 0.05 0.06 0.05 0.04 0.03 0.04 0.04 0.03 0.04 0.03 0.03 0.03 0.03 0.03 0.04 0.06 0.06 0.07 0.09 0.10 0.10 0.10 0.10 0.11 0.15 0.19 0.21 0.18 0.14 0.13 0.12 0.11
0.06 0.04 0.05 0.06 0.05 0.03 0.04 0.04 0.06 0.05 0.05 0.04 0.03 0.03 0.04 0.04 0.04 0.05 0.05 0.04 0.03 0.02 0.02 0.02 0.03 0.04 0.04 0.05 0.09 0.14 0.16 0.18 0.16 0.13 0.10 0.09 0.11 0.11 0.10 0.09 0.09 0.10 0.11
0.05 0.04 0.06 0.06 0.04 0.03 0.03 0.05 0.05 0.04 0.04 0.03 0.03 0.03 0.04 0.03 0.04 0.05 0.06 0.05 0.04 0.03 0.03 0.03 0.04 0.04 0.04 0.04 0.07 0.09 0.10 0.11 0.10 0.09 0.08 0.06 0.06 0.06 0.06 0.07 0.08 0.10 0.10
0.02 0.03 0.03 0.02 0.02 0.02 0.03 0.04 0.04 0.03 0.03 0.03 0.03 0.04 0.04 0.03 0.03 0.04 0.06 0.07 0.06 0.06 0.06 0.05 0.04 0.05 0.05 0.05 0.06 0.05 0.06 0.07 0.07 0.08 0.08 0.07 0.06 0.05 0.05 0.06 0.06 0.06 0.07
0.01 0.01 0.01 0.01 0.01 0.02 0.02 0.02 0.02 0.02 0.02 0.02 0.02 0.04 0.03 0.03 0.03 0.04 0.06 0.07 0.07 0.07 0.08 0.06 0.04 0.04 0.05 0.05 0.06 0.05 0.05 0.05 0.06 0.07 0.08 0.08 0.07 0.07 0.07 0.07 0.07 0.07 0.07
0.00 0.01 0.01 0.01 0.01 0.01 0.01 0.01 0.01 0.01 0.01 0.01 0.02 0.03 0.04 0.03 0.04 0.04 0.04 0.04 0.05 0.06 0.09 0.08 0.06 0.05 0.05 0.03 0.03 0.04 0.03 0.03 0.04 0.06 0.05 0.04 0.04 0.05 0.04 0.05 0.05 0.06 0.07
0.00 0.01 0.01 0.01 0.01 0.01 0.01 0.01 0.01 0.01 0.03 0.03 0.04 0.03 0.02 0.02 0.02 0.03 0.03 0.04 0.04 0.04 0.06 0.08 0.06 0.05 0.04 0.03 0.04 0.05 0.04 0.04 0.04 0.05 0.06 0.05 0.04 0.04 0.03 0.03 0.03 0.03 0.04
0.01 0.01 0.01 0.01 0.01 0.01 0.02 0.02 0.02 0.03 0.04 0.05 0.06 0.03 0.02 0.02 0.03 0.03 0.03 0.04 0.04 0.03 0.04 0.05 0.05 0.03 0.03 0.03 0.03 0.03 0.03 0.03 0.04 0.05 0.05 0.05 0.04 0.04 0.03 0.03 0.03 0.03 0.03
0.01 0.01 0.01 0.01 0.01 0.01 0.02 0.02 0.02 0.04 0.05 0.04 0.04 0.03 0.03 0.03 0.03 0.02 0.03 0.04 0.03 0.02 0.03 0.04 0.04 0.03 0.03 0.04 0.02 0.02 0.02 0.03 0.04 0.04 0.04 0.04 0.04 0.03 0.03 0.03 0.02 0.02 0.02
0.01 0.01 0.02 0.02 0.01 0.01 0.02 0.02 0.02 0.03 0.04 0.03 0.03 0.03 0.03 0.03 0.03 0.03 0.03 0.02 0.02 0.02 0.03 0.03 0.04 0.03 0.03 0.03 0.02 0.02 0.02 0.03 0.02 0.02 0.02 0.03 0.03 0.03 0.02 0.02 0.02 0.02 0.02
0.02 0.02 0.02 0.02 0.02 0.02 0.02 0.03 0.02 0.03 0.03 0.03 0.03 0.02 0.03 0.03 0.03 0.03 0.03 0.03 0.03 0.02 0.02 0.02 0.03 0.03 0.02 0.02 0.02 0.02 0.02 0.03 0.03 0.03 0.03 0.03 0.03 0.03 0.03 0.03 0.02 0.02 0.01
0.03 0.02 0.02 0.02 0.02 0.02 0.02 0.02 0.02 0.02 0.03 0.03 0.02 0.02 0.01 0.01 0.01 0.01 0.01 0.01 0.01 0.01 0.02 0.02 0.02 0.02 0.02 0.02 0.03 0.03 0.03 0.03 0.02 0.02 0.02 0.02 0.03 0.03 0.03 0.03 0.03 0.02 0.01
0.03 0.02 0.02 0.02 0.01 0.02 0.01 0.01 0.01 0.01 0.02 0.02 0.02 0.02 0.01 0.01 0.01 0.00 0.00 0.00 0.00 0.01 0.01 0.01 0.01 0.01 0.02 0.01 0.01 0.01 0.01 0.01 0.01 0.01 0.02 0.02 0.03 0.03 0.03 0.04 0.03 0.03 0.02
0.02 0.01 0.01 0.01 0.00 0.01 0.01 0.01 0.02 0.01 0.01 0.02 0.02 0.03 0.03 0.02 0.01 0.01 0.00 0.00 0.00 0.00 0.01 0.00 0.01 0.01 0.01 0.01 0.01 0.01 0.00 0.01 0.02 0.02 0.03 0.04 0.05 0.05 0.05 0.03 0.03 0.03 0.03
0.02 0.02 0.01 0.01 0.01 0.01 0.02 0.02 0.03 0.02 0.01 0.01 0.01 0.01 0.02 0.02 0.02 0.01 0.01 0.00 0.00 0.00 0.00 0.00 0.00 0.00 0.00 0.00 0.01 0.01 0.01 0.02 0.02 0.03 0.03 0.04 0.06 0.06 0.07 0.06 0.04 0.03 0.03
MSLP
1013.38 1013.48 1013.50 1013.48 1013.43 1013.43 1013.49 1013.65 1013.91 1014.26 1014.65 1015.04 1015.40 1015.69 1015.90 1016.06 1016.18 1016.31 1016.47 1016.68 1016.96 1017.28 1017.63 1017.98 1018.32 1018.61 1018.87 1019.10 1019.31 1019.51 1019.72 1019.95 1020.18 1020.41 1020.65 1020.86 1021.06 1021.23 1021.39 1021.53 1021.68 1021.84 1022.01
1013.65 1013.74 1013.77 1013.74 1013.70 1013.69 1013.76 1013.92 1014.20 1014.56 1014.98 1015.41 1015.79 1016.11 1016.34 1016.49 1016.60 1016.70 1016.83 1017.00 1017.24 1017.54 1017.88 1018.23 1018.55 1018.85 1019.09 1019.29 1019.46 1019.62 1019.78 1019.97 1020.17 1020.40 1020.64 1020.87 1021.09 1021.28 1021.46 1021.61 1021.75 1021.90 1022.05
1013.89 1013.99 1014.04 1014.03 1014.02 1014.03 1014.11 1014.29 1014.57 1014.94 1015.36 1015.80 1016.20 1016.53 1016.77 1016.92 1017.02 1017.08 1017.16 1017.29 1017.49 1017.75 1018.05 1018.38 1018.69 1018.97 1019.19 1019.37 1019.52 1019.64 1019.78 1019.93 1020.12 1020.34 1020.59 1020.84 1021.07 1021.29 1021.47 1021.63 1021.78 1021.91 1022.06
1014.08 1014.21 1014.30 1014.35 1014.38 1014.43 1014.53 1014.72 1015.00 1015.36 1015.78 1016.21 1016.60 1016.93 1017.17 1017.31 1017.39 1017.42 1017.46 1017.54 1017.68 1017.88 1018.14 1018.42 1018.70 1018.96 1019.17 1019.34 1019.47 1019.58 1019.70 1019.85 1020.03 1020.25 1020.49 1020.76 1021.01 1021.23 1021.42 1021.59 1021.73 1021.85 1021.98
1014.20 1014.37 1014.52 1014.63 1014.73 1014.84 1014.97 1015.17 1015.45 1015.78 1016.17 1016.58 1016.95 1017.26 1017.49 1017.62 1017.68 1017.69 1017.69 1017.72 1017.80 1017.94 1018.13 1018.37 1018.61 1018.84 1019.04 1019.21 1019.34 1019.45 1019.57 1019.72 1019.90 1020.12 1020.36 1020.62 1020.87 1021.10 1021.29 1021.45 1021.57 1021.68 1021.79
1014.26 1014.46 1014.66 1014.85 1015.02 1015.19 1015.37 1015.58 1015.84 1016.15 1016.50 1016.86 1017.20 1017.49 1017.71 1017.83 1017.88 1017.87 1017.84 1017.82 1017.84 1017.92 1018.06 1018.24 1018.44 1018.65 1018.84 1019.00 1019.14 1019.26 1019.40 1019.55 1019.73 1019.95 1020.18 1020.43 1020.67 1020.88 1021.05 1021.18 1021.29 1021.38 1021.46
1014.24 1014.46 1014.72 1014.97 1015.22 1015.45 1015.66 1015.88 1016.12 1016.40 1016.70 1017.01 1017.32 1017.58 1017.79 1017.91 1017.96 1017.95 1017.90 1017.85 1017.83 1017.85 1017.93 1018.05 1018.22 1018.40 1018.57 1018.74 1018.89 1019.03 1019.17 1019.33 1019.52 1019.72 1019.94 1020.16 1020.37 1020.55 1020.70 1020.80 1020.88 1020.94 1021.00
1014.18 1014.41 1014.69 1015.00 1015.30 1015.57 1015.82 1016.04 1016.26 1016.49 1016.74 1017.01 1017.28 1017.52 1017.72 1017.85 1017.91 1017.91 1017.86 1017.80 1017.74 1017.72 1017.75 1017.83 1017.96 1018.11 1018.27 1018.44 1018.59 1018.75 1018.90 1019.07 1019.24 1019.43 1019.63 1019.82 1019.99 1020.13 1020.24 1020.31 1020.36 1020.40 1020.44
1014.11 1014.32 1014.61 1014.94 1015.27 1015.57 1015.82 1016.04 1016.23 1016.42 1016.63 1016.85 1017.08 1017.31 1017.51 1017.66 1017.74 1017.76 1017.73 1017.66 1017.59 1017.55 1017.54 1017.58 1017.67 1017.79 1017.95 1018.10 1018.26 1018.42 1018.58 1018.73 1018.90 1019.07 1019.23 1019.39 1019.53 1019.63 1019.71 1019.75 1019.78 1019.80 1019.84
1014.05 1014.23 1014.50 1014.83 1015.16 1015.46 1015.71 1015.91 1016.07 1016.21 1016.37 1016.55 1016.76 1016.97 1017.17 1017.34 1017.45 1017.49 1017.49 1017.44 1017.37 1017.32 1017.29 1017.30 1017.36 1017.46 1017.59 1017.74 1017.89 1018.05 1018.20 1018.34 1018.49 1018.64 1018.78 1018.91 1019.02 1019.10 1019.16 1019.19 1019.21 1019.23 1019.28
1014.02 1014.15 1014.39 1014.69 1014.99 1015.28 1015.50 1015.67 1015.80 1015.91 1016.03 1016.17 1016.34 1016.53 1016.73 1016.91 1017.05 1017.13 1017.15 1017.12 1017.07 1017.02 1016.98 1016.98 1017.03 1017.11 1017.23 1017.36 1017.51 1017.65 1017.79 1017.93 1018.06 1018.19 1018.32 1018.43 1018.53 1018.61 1018.66 1018.71 1018.74 1018.78 1018.84
1014.00 1014.09 1014.28 1014.54 1014.81 1015.05 1015.25 1015.39 1015.49 1015.56 1015.64 1015.74 1015.88 1016.06 1016.24 1016.42 1016.57 1016.67 1016.72 1016.72 1016.69 1016.66 1016.63 1016.64 1016.68 1016.77 1016.88 1017.00 1017.14 1017.28 1017.41 1017.54 1017.66 1017.78 1017.91 1018.03 1018.13 1018.23 1018.30 1018.37 1018.43 1018.50 1018.60
1013.98 1014.03 1014.18 1014.39 1014.62 1014.83 1015.00 1015.11 1015.18 1015.22 1015.27 1015.34 1015.44 1015.58 1015.74 1015.91 1016.05 1016.16 1016.22 1016.25 1016.26 1016.25 1016.26 1016.29 1016.35 1016.45 1016.57 1016.70 1016.84 1016.98 1017.11 1017.24 1017.37 1017.50 1017.63 1017.77 1017.90 1018.03 1018.14 1018.25 1018.35 1018.46 1018.59
1013.92 1013.95 1014.07 1014.25 1014.45 1014.64 1014.78 1014.88 1014.93 1014.95 1014.96 1015.00 1015.06 1015.16 1015.28 1015.41 1015.53 1015.64 1015.71 1015.76 1015.79 1015.83 1015.88 1015.96 1016.06 1016.19 1016.35 1016.51 1016.67 1016.83 1016.97 1017.11 1017.25 1017.40 1017.55 1017.72 1017.89 1018.05 1018.21 1018.36 1018.51 1018.66 1018.82
1013.80 1013.84 1013.95 1014.11 1014.30 1014.48 1014.63 1014.72 1014.77 1014.78 1014.78 1014.78 1014.79 1014.84 1014.91 1014.99 1015.08 1015.16 1015.23 1015.29 1015.36 1015.44 1015.54 1015.68 1015.85 1016.04 1016.25 1016.46 1016.66 1016.85 1017.02 1017.19 1017.35 1017.52 1017.70 1017.90 1018.10 1018.30 1018.51 1018.70 1018.88 1019.06 1019.24
1013.61 1013.67 1013.81 1013.99 1014.20 1014.40 1014.56 1014.68 1014.73 1014.75 1014.73 1014.70 1014.67 1014.66 1014.67 1014.70 1014.73 1014.77 1014.83 1014.90 1014.99 1015.12 1015.28 1015.49 1015.74 1016.01 1016.28 1016.56 1016.82 1017.05 1017.27 1017.47 1017.66 1017.85 1018.06 1018.28 1018.51 1018.74 1018.97 1019.18 1019.39 1019.59 1019.78
1013.37 1013.49 1013.67 1013.90 1014.15 1014.39 1014.59 1014.74 1014.83 1014.85 1014.83 1014.78 1014.72 1014.65 1014.60 1014.55 1014.53 1014.53 1014.56 1014.62 1014.73 1014.90 1015.13 1015.41 1015.73 1016.08 1016.44 1016.78 1017.11 1017.40 1017.66 1017.90 1018.12 1018.33 1018.56 1018.79 1019.03 1019.27 1019.51 1019.73 1019.94 1020.14 1020.34
1013.09 1013.29 1013.54 1013.84 1014.15 1014.45 1014.71 1014.90 1015.02 1015.07 1015.05 1014.99 1014.90 1014.79 1014.67 1014.57 1014.49 1014.44 1014.43 1014.49 1014.60 1014.80 1015.07 1015.41 1015.79 1016.22 1016.65 1017.07 1017.46 1017.81 1018.12 1018.39 1018.63 1018.85 1019.08 1019.31 1019.54 1019.77 1020.00 1020.22 1020.42 1020.61 1020.80
1012.82 1013.10 1013.44 1013.81 1014.20 1014.55 1014.87 1015.11 1015.27 1015.34 1015.34 1015.28 1015.17 1015.03 1014.88 1014.72 1014.59 1014.50 1014.46 1014.48 1014.59 1014.79 1015.09 1015.46 1015.90 1016.38 1016.87 1017.35 1017.79 1018.18 1018.53 1018.82 1019.08 1019.30 1019.52 1019.73 1019.94 1020.15 1020.35 1020.55 1020.73 1020.91 1021.09
1012.57 1012.95 1013.36 1013.81 1014.26 1014.67 1015.03 1015.31 1015.51 1015.61 1015.62 1015.57 1015.46 1015.32 1015.14 1014.97 1014.80 1014.67 1014.59 1014.59 1014.68 1014.86 1015.15 1015.53 1015.99 1016.50 1017.02 1017.54 1018.02 1018.44 1018.81 1019.12 1019.37 1019.59 1019.78 1019.97 1020.14 1020.32 1020.49 1020.66 1020.83 1021.00 1021.17
1012.36 1012.82 1013.31 1013.82 1014.31 1014.76 1015.15 1015.45 1015.66 1015.79 1015.84 1015.81 1015.72 1015.59 1015.42 1015.25 1015.07 1014.92 1014.82 1014.78 1014.84 1014.99 1015.25 1015.61 1016.05 1016.55 1017.09 1017.61 1018.10 1018.53 1018.91 1019.22 1019.46 1019.66 1019.83 1019.97 1020.11 1020.26 1020.40 1020.54 1020.70 1020.86 1021.03
1012.20 1012.72 1013.27 1013.80 1014.32 1014.77 1015.16 1015.47 1015.70 1015.84 1015.91 1015.92 1015.88 1015.79 1015.67 1015.52 1015.36 1015.22 1015.10 1015.03 1015.05 1015.16 1015.37 1015.68 1016.08 1016.55 1017.05 1017.55 1018.03 1018.46 1018.83 1019.12 1019.35 1019.53 1019.66 1019.78 1019.88 1019.99 1020.11 1020.23 1020.38 1020.54 1020.72
1012.07 1012.64 1013.20 1013.74 1014.25 1014.69 1015.06 1015.35 1015.58 1015.74 1015.85 1015.91 1015.93 1015.91 1015.85 1015.76 1015.65 1015.52 1015.40 1015.32 1015.30 1015.35 1015.51 1015.76 1016.09 1016.50 1016.96 1017.42 1017.87 1018.27 1018.61 1018.89 1019.09 1019.24 1019.35 1019.44 1019.52 1019.60 1019.69 1019.81 1019.95 1020.11 1020.29
1011.97 1012.55 1013.11 1013.64 1014.10 1014.51 1014.84 1015.11 1015.33 1015.51 1015.66 1015.78 1015.87 1015.94 1015.97 1015.95 1015.90 1015.82 1015.72 1015.63 1015.58 1015.59 1015.68 1015.85 1016.12 1016.46 1016.85 1017.27 1017.67 1018.03 1018.35 1018.60 1018.78 1018.91 1018.99 1019.05 1019.11 1019.17 1019.26 1019.36 1019.50 1019.66 1019.84
1011.88 1012.45 1012.99 1013.48 1013.90 1014.25 1014.54 1014.78 1014.99 1015.19 1015.38 1015.56 1015.74 1015.90 1016.02 1016.10 1016.12 1016.09 1016.03 1015.95 1015.88 1015.85 1015.89 1016.00 1016.20 1016.47 1016.80 1017.16 1017.51 1017.84 1018.12 1018.34 1018.50 1018.61 1018.67 1018.72 1018.76 1018.81 1018.89 1018.98 1019.11 1019.26 1019.43
1011.79 1012.35 1012.86 1013.31 1013.68 1013.98 1014.22 1014.44 1014.64 1014.85 1015.08 1015.33 1015.58 1015.83 1016.04 1016.21 1016.30 1016.34 1016.31 1016.24 1016.17 1016.12 1016.12 1016.19 1016.33 1016.55 1016.82 1017.12 1017.43 1017.73 1017.98 1018.17 1018.32 1018.41 1018.47 1018.50 1018.53 1018.58 1018.64 1018.72 1018.84 1018.97 1019.11
Thickness
5760 5760 5758 5757 5757 5756 5755 5754 5753 5752 5751 5749 5748 5747 5746 5744 5744 5743 5742 5742 5741 5740 5740 5738 5737 5736 5734 5733 5731 5730 5729 5728 5726 5725 5724 5723 5722 5721 5720 5718 5717 5715 5714
5760 5759 5758 5757 5756 5755 5754 5753 5752 5751 5749 5748 5746 5745 5744 5742 5742 5741 5740 5740 5739 5739 5738 5737 5736 5734 5733 5731 5730 5729 5727 5726 5725 5724 5723 5722 5721 5720 5719 5717 5716 5715 5713
5760 5759 5757 5756 5755 5755 5754 5752 5751 5749 5747 5746 5744 5742 5741 5740 5739 5738 5737 5737 5736 5736 5735 5735 5734 5732 5731 5729 5728 5728 5726 5725 5724 5723 5722 5721 5720 5719 5718 5716 5715 5714 5713
5759 5758 5756 5755 5755 5754 5753 5751 5749 5747 5745 5743 5741 5740 5738 5737 5736 5735 5734 5733 5733 5733 5732 5732 5732 5730 5730 5728 5727 5726 5724 5723 5723 5722 5721 5720 5718 5718 5716 5715 5714 5713 5712
5759 5758 5756 5755 5754 5753 5752 5751 5748 5746 5742 5740 5739 5737 5736 5735 5733 5733 5731 5731 5730 5730 5730 5729 5729 5729 5728 5727 5726 5725 5724 5722 5722 5721 5720 5718 5717 5716 5715 5713 5712 5711 5710
5759 5757 5755 5754 5753 5751 5750 5748 5746 5744 5741 5739 5737 5734 5732 5732 5731 5730 5729 5728 5728 5727 5727 5726 5726 5726 5726 5725 5725 5724 5722 5721 5721 5720 5718 5717 5716 5714 5712 5711 5710 5709 5708
5758 5756 5755 5753 5752 5750 5748 5746 5744 5741 5738 5737 5733 5729 5729 5729 5728 5727 5726 5726 5725 5724 5724 5723 5723 5723 5723 5722 5721 5721 5720 5720 5719 5718 5716 5715 5714 5712 5711 5709 5708 5706 5705
5757 5756 5754 5752 5751 5749 5746 5744 5742 5739 5737 5736 5732 5726 5721 5721 5724 5725 5724 5723 5722 5722 5721 5720 5720 5719 5719 5719 5718 5717 5717 5716 5716 5715 5714 5712 5711 5709 5708 5706 5705 5703 5702
5757 5756 5754 5753 5751 5748 5746 5744 5742 5739 5735 5734 5733 5728 5720 5715 5718 5720 5720 5720 5720 5719 5718 5717 5716 5716 5715 5715 5714 5713 5713 5713 5712 5712 5710 5709 5707 5706 5704 5702 5701 5699 5698
5757 5756 5754 5753 5751 5748 5746 5744 5742 5739 5736 5732 5730 5729 5727 5723 5717 5713 5715 5716 5716 5715 5714 5713 5712 5712 5711 5710 5710 5709 5709 5708 5708 5707 5707 5705 5703 5701 5700 5698 5697 5695 5694
5757 5756 5754 5752 5750 5748 5746 5744 5742 5739 5737 5734 5730 5727 5724 5722 5719 5714 5710 5711 5711 5711 5711 5710 5709 5708 5707 5706 5706 5705 5704 5703 5702 5702 5701 5700 5698 5697 5695 5694 5692 5690 5689
5756 5755 5753 5752 5750 5748 5745 5743 5741 5739 5737 5734 5732 5729 5725 5721 5717 5715 5710 5708 5706 5706 5706 5706 5705 5703 5702 5702 5701 5700 5698 5697 5696 5695 5695 5694 5692 5691 5690 5688 5686 5685 5685
5754 5754 5753 5751 5749 5747 5745 5743 5740 5738 5736 5733 5731 5728 5726 5724 5721 5717 5712 5708 5704 5702 5702 5701 5700 5699 5697 5696 5695 5694 5692 5691 5691 5690 5689 5688 5686 5685 5684 5682 5681 5679 5678
5755 5754 5752 5751 5749 5747 5744 5742 5739 5737 5735 5733 5731 5728 5725 5723 5721 5718 5714 5708 5702 5698 5697 5695 5695 5693 5692 5690 5689 5687 5686 5685 5685 5684 5683 5681 5679 5678 5677 5675 5674 5672 5670
5755 5753 5751 5749 5747 5745 5742 5740 5737 5735 5733 5731 5729 5727 5724 5722 5720 5717 5714 5711 5704 5697 5692 5690 5689 5688 5686 5684 5682 5681 5679 5678 5678 5677 5675 5674 5672 5670 5669 5667 5665 5664 5662
5753 5751 5749 5747 5744 5742 5740 5738 5735 5733 5730 5728 5726 5723 5721 5719 5717 5714 5712 5709 5705 5699 5691 5687 5684 5682 5680 5678 5675 5674 5672 5670 5669 5668 5667 5666 5664 5662 5660 5658 5657 5655 5653
5752 5749 5747 5745 5742 5740 5738 5735 5733 5730 5728 5725 5723 5720 5717 5716 5713 5711 5708 5705 5701 5697 5689 5683 5680 5677 5674 5671 5669 5667 5665 5663 5661 5660 5659 5657 5655 5653 5651 5649 5647 5646 5645
5751 5748 5746 5743 5741 5738 5736 5733 5730 5727 5725 5722 5719 5717 5714 5713 5710 5707 5705 5701 5697 5694 5688 5680 5675 5671 5668 5665 5663 5660 5657 5655 5653 5651 5649 5648 5646 5644 5642 5640 5638 5636 5635
5749 5746 5744 5741 5739 5736 5733 5730 5728 5725 5722 5719 5717 5714 5711 5709 5706 5703 5700 5697 5693 5690 5685 5679 5671 5666 5663 5659 5656 5653 5651 5648 5646 5643 5641 5638 5637 5635 5633 5631 5629 5627 5625
5747 5744 5741 5739 5736 5733 5731 5728 5725 5722 5719 5716 5714 5711 5709 5706 5703 5700 5696 5692 5688 5683 5678 5673 5667 5662 5658 5654 5651 5647 5644 5641 5638 5636 5633 5631 5629 5627 5624 5623 5621 5619 5616
5746 5743 5739 5736 5734 5731 5728 5725 5722 5719 5716 5713 5711 5709 5706 5704 5701 5697 5693 5688 5684 5679 5673 5668 5663 5658 5653 5649 5646 5643 5639 5635 5632 5629 5627 5624 5621 5619 5616 5615 5613 5610 5608
5744 5740 5737 5734 5731 5729 5726 5723 5720 5717 5713 5710 5707 5704 5702 5699 5696 5692 5689 5685 5681 5676 5670 5665 5659 5655 5650 5647 5642 5639 5634 5631 5628 5624 5621 5618 5615 5612 5610 5607 5605 5602 5599
5740 5737 5734 5731 5728 5726 5723 5720 5717 5713 5710 5707 5704 5701 5698 5695 5691 5687 5683 5679 5675 5671 5668 5663 5657 5653 5648 5644 5639 5635 5630 5627 5624 5619 5615 5612 5608 5606 5603 5600 5597 5594 5591
5738 5735 5732 5729 5726 5723 5721 5717 5713 5710 5706 5703 5701 5698 5694 5691 5687 5683 5678 5673 5669 5665 5662 5658 5654 5650 5645 5640 5636 5632 5627 5621 5616 5612 5609 5607 5603 5600 5597 5593 5590 5587 5584
5735 5732 5729 5726 5723 5721 5718 5714 5710 5706 5702 5699 5696 5693 5690 5687 5683 5679 5674 5668 5663 5659 5655 5652 5648 5644 5639 5635 5631 5626 5621 5617 5612 5608 5603 5600 5597 5593 5589 5586 5583 5579 5576
5733 5729 5725 5723 5721 5718 5715 5711 5707 5703 5698 5694 5691 5688 5685 5682 5678 5674 5669 5664 5658 5654 5649 5646 5641 5637 5633 5629 5624 5620 5617 5612 5607 5603 5598 5594 5590 5586 5583 5580 5575 5572 5568